Location: Unspecified
(38.0000°N, 97.0000°W)
Time: 02:13:48
(UTC+00:00)

Daily predictions for brighter satellites

Satellite Brightness Start Highest point End
(mag) Time Altitude Azimuth Time Altitude Azimuth Time Altitude Azimuth
Cosmos 2221 Rocket 4.0 02:16:36 10° SSE 02:20:51 45° E 02:25:06 10° NNE
Okean 3 3.8 02:16:44 10° SSW 02:20:52 71° W 02:25:02 10° N
Cosmos 614 Rocket 4.1 02:15:44 10° NNW 02:20:54 63° ENE 02:26:04 10° SSE
Nadezhda 3 Rocket 4.0 02:15:55 10° S 02:22:02 76° E 02:28:11 10° N
Cosmos 1733 3.9 02:18:51 10° N 02:22:29 38° E 02:26:05 10° SSE
Cosmos 407 Rocket 4.4 02:19:46 10° N 02:24:36 34° ENE 02:29:20 10° SE
Cosmos 1371 Rocket 4.4 02:21:57 10° S 02:26:47 42° ESE 02:31:38 10° NNE
Resurs 01 Rocket 2.7 02:24:19 10° SE 02:28:07 29° ENE 02:31:54 10° N
Okean 2 Rocket 3.7 02:24:27 10° N 02:28:41 40° ENE 02:32:56 10° SSE
MOS 1-B Rocket 4.4 02:23:55 10° N 02:29:27 63° WNW 02:35:08 10° SSW
MOS 1 4.4 02:26:41 10° SSE 02:32:19 67° ENE 02:37:59 10° N
Cosmos 1726 4.2 02:35:14 10° NE 02:37:01 13° ENE 02:38:47 10° ESE
Cosmos 2151 Rocket 4.2 02:33:29 10° N 02:37:36 38° ENE 02:41:39 10° SSE
SL-24 DEB 4.4 02:35:21 10° SSE 02:39:57 61° E 02:44:39 10° N
Cosmos 2219 4.3 02:35:15 10° NW 02:40:41 44° WSW 02:46:05 10° S
IRS-1A Rocket 4.4 02:36:08 10° SSE 02:42:02 81° ENE 02:47:54 10° NNW
USA 186 3.8 02:40:37 10° SSW 02:42:42 21° W 02:44:55 10° NW
Cosmos 2297 Rocket 3.9 02:44:21 10° NW 02:49:15 31° WSW 02:54:07 10° SSW
Cosmos 2263 Rocket 3.2 02:45:42 10° N 02:50:51 34° ENE 02:55:11 14° ESE
Cosmos 1842 3.4 02:47:10 10° S 02:51:00 56° E 02:54:52 10° NNE
Cosmos 2227 Rocket 3.4 02:47:13 10° NW 02:52:26 39° WSW 02:57:38 10° S
Aureole 2 Rocket 1.6 02:50:29 10° N 02:52:54 56° ENE 02:54:18 20° SE
BREEZE M DEB (TANK) 3.8 02:52:50 10° WSW 02:53:38 11° SW 02:54:23 10° SSW
SJ-6B 4.3 02:50:34 10° SSW 02:54:24 38° W 02:58:14 10° NNW
Cosmos 1766 3.2 02:53:39 10° N 02:57:31 88° E 03:01:17 11° S
NOSS 3-2 (C) 3.3 02:53:50 10° SSW 02:59:07 57° ESE 03:05:04 10° NE
NOSS 3-2 (A) 3.4 02:54:58 10° SW 03:00:23 78° WNW 03:06:36 10° NNE
Lacrosse 5 3.8 02:59:58 10° NNW 03:03:50 21° NNE 03:07:40 10° E
Sich 1 Rocket 4.3 02:59:44 10° NNW 03:04:00 52° W 03:08:15 10° S
Meteor 2-10 4.2 02:59:16 10° N 03:04:11 52° ENE 03:08:00 17° SSE
Okean 2 3.6 03:00:33 12° SSE 03:04:14 50° E 03:08:12 10° NNE
Cosmos 1315 Rocket 4.1 03:01:27 10° NNE 03:05:00 27° ENE 03:06:59 19° ESE
ARIANE 5 R/B 4.1 03:04:24 15° ESE 03:06:44 23° ENE 03:10:14 10° NNE
Cosmos 292 Rocket 4.3 03:03:54 12° SSE 03:07:59 37° ESE 03:12:26 10° NE
Cosmos 1674 Rocket 3.5 03:03:53 10° S 03:08:18 85° E 03:12:43 10° N
Ariane Rocket 3.5 03:03:19 10° S 03:08:19 59° W 03:13:22 10° NNW
Cosmos 1300 Rocket 4.3 03:04:09 10° NNW 03:08:20 50° W 03:12:29 10° SSW
Cosmos 1470 3.5 03:05:40 10° N 03:09:23 37° ENE 03:11:24 22° SE
Terra 3.8 03:10:52 11° E 03:13:05 15° ENE 03:15:44 10° NNE
ATLAS 3B R/B 4.4 03:14:16 10° E 03:14:16 10° E 03:14:49 10° E
ATLAS 2A CENTAUR R/B 4.3 03:03:50 10° SW 03:14:08 19° S 03:17:04 16° SSE
Genesis I 3.2 03:16:17 10° SSW 03:20:00 56° ESE 03:23:49 10° NE
MetOp-B 4.1 03:16:54 18° SSE 03:20:52 73° ENE 03:26:14 10° N
IGS 5A 3.6 03:18:14 16° S 03:21:27 73° WSW 03:25:38 10° NNW
Cosmos 1758 4.2 03:17:57 10° NNE 03:21:32 32° ENE 03:22:54 25° ESE
Cosmos 1241 Rocket 4.5 03:15:07 10° NNW 03:21:34 86° WSW 03:26:00 21° SSE
Meteor 1-21 4.2 03:17:59 10° S 03:23:40 75° E 03:29:18 10° NNE
BREEZE-M DEB (TANK) 2.6 03:26:20 10° SSW 03:29:41 26° E 03:31:25 10° ENE
SL-16 R/B 2.1 03:26:45 10° SSW 03:32:22 70° ESE 03:38:01 10° NNE
Cosmos 1140 Rocket 3.9 03:28:48 10° NNW 03:33:59 62° WSW 03:37:38 19° S
USA 238 DEB 4.1 03:27:55 10° SW 03:34:20 64° NW 03:41:06 10° NNE
USA 238 4.1 03:28:01 10° SW 03:34:26 65° NW 03:41:12 10° NNE
Cosmos 2322 Rocket 2.2 03:32:11 13° S 03:37:13 58° ESE 03:42:49 10° NNE
USA 215 3.3 03:31:09 10° NE 03:37:30 53° SE 03:43:51 10° SSW
Cosmos 1674 3.6 03:37:49 29° E 03:37:59 29° E 03:41:16 10° NNE
Cosmos 2360 Rocket 2.9 03:36:19 27° SE 03:38:03 32° ESE 03:43:00 10° NE
Cosmos 2227 4.2 03:34:30 10° NNW 03:40:08 74° ENE 03:43:03 29° SSE
Landsat 7 4.4 03:37:22 17° S 03:40:51 55° W 03:45:32 10° NNW
SPOT 1/Viking Rocket 3.5 03:40:37 25° S 03:43:43 83° WSW 03:48:53 10° NNW
Okean 1 Rocket 3.1 03:40:49 10° N 03:45:10 77° W 03:47:21 29° S
Cosmos 1452 Rocket 3.4 03:43:26 19° S 03:47:10 69° ESE 03:52:25 10° NNE
Cosmos 2237 4.4 03:45:41 26° S 03:48:42 51° ESE 03:54:12 10° NNE
Cosmos 1455 Rocket 3.9 03:47:02 10° N 03:51:08 35° ENE 03:51:59 32° ESE
Cosmos 1953 3.3 03:48:22 10° NNE 03:52:01 31° ENE 03:52:25 30° E
IUS-18 SRM-1 4.2 03:45:53 10° WSW 03:54:34 26° S 03:55:03 26° S
Cosmos 1908 4.4 03:51:44 10° NNE 03:55:08 28° ENE 03:55:15 28° E
CENTAUR R/B 3.5 03:50:32 10° WSW 03:56:04 47° NW 04:02:39 10° NNE
Cosmos 2173 Rocket 4.5 03:50:07 10° N 03:56:14 46° ENE 03:58:45 32° SE
Cosmos 1707 3.5 03:54:45 20° SSW 03:57:08 50° W 04:00:55 10° N
Cosmos 1727 Rocket 4.0 03:52:28 18° S 03:57:26 85° W 04:03:46 10° N
Resurs 01 Rocket 3.6 04:01:15 11° SW 04:04:34 23° W 04:08:03 10° NW
Cosmos 1340 4.5 04:09:38 20° ENE 04:09:38 20° ENE 04:11:30 10° NE
Geosat 4.1 04:08:33 39° S 04:10:22 69° WSW 04:15:23 10° NNW
Cosmos 1726 3.6 04:09:01 10° NNW 04:12:14 30° W 04:13:27 24° SW
Spot 2 Rocket 3.8 04:10:36 34° S 04:12:42 62° WSW 04:17:44 10° NNW
H-2A R/B 3.4 04:10:57 10° NNE 04:14:59 58° E 04:14:59 58° E
Cosmos 1802 Rocket 4.3 04:09:10 10° N 04:15:14 51° E 04:17:13 38° SE
Cosmos 1331 Rocket 4.0 04:18:17 50° SSE 04:19:15 59° ESE 04:24:25 10° NNE
Cosmos 1844 Rocket 3.5 04:17:49 10° N 04:23:08 39° ENE 04:24:44 33° E
SPOT 5 3.1 04:23:19 44° S 04:24:58 73° WSW 04:30:05 10° NNW
ERS-1 Rocket 3.1 04:25:00 45° SSW 04:26:27 69° WSW 04:31:29 10° NNW
Cosmos 2333 4.5 04:27:04 46° ESE 04:27:36 47° ESE 04:33:05 10° NE
Cosmos 1741 Rocket 3.9 04:27:40 10° NNW 04:32:57 78° ENE 04:33:54 59° SE
Cosmos 2263 Rocket 3.5 04:29:41 10° NW 04:34:40 32° WSW 04:36:53 24° SW
Cosmos 2333 Rocket 2.6 04:35:13 45° ESE 04:35:21 45° ESE 04:40:47 10° NE
Cosmos 1975 Rocket 4.1 04:34:08 30° SW 04:35:41 41° W 04:39:51 10° N
Cosmos 1025 Rocket 2.9 04:35:57 74° SSW 04:36:18 84° W 04:40:42 10° N
Aureole 1 Rocket 4.2 04:36:06 10° NNW 04:41:56 67° ENE 04:43:59 46° SE
ARIANE 5 R/B 4.0 04:41:56 26° WSW 04:43:01 29° W 04:46:54 10° NW
Cosmos 2061 Rocket 4.1 04:38:08 10° N 04:44:33 69° E 04:46:07 51° SE
Cosmos 1459 Rocket 4.0 04:39:24 10° N 04:45:27 73° W 04:47:15 46° SSW
Lacrosse 5 1.7 04:42:14 10° NW 04:47:19 80° SW 04:47:41 75° S
Meteor 1-24 Rocket 4.0 04:48:58 45° E 04:48:58 45° E 04:54:01 10° NNE
Terra 2.1 04:49:45 51° SW 04:50:20 55° W 04:55:01 10° NNW
Cosmos 1626 3.0 04:53:52 44° WNW 04:53:52 44° WNW 04:57:05 10° N
GEOS 3 Rocket 4.1 04:53:27 46° E 04:54:40 56° NE 04:59:54 10° NNW
Cosmos 1844 3.7 04:52:37 10° NNW 04:58:09 63° ENE 04:58:52 57° ESE
Cosmos 2219 Rocket 2.1 05:01:37 64° ESE 05:01:45 64° ESE 05:07:22 10° NNE
Cosmos 1864 Rocket 4.4 04:56:36 10° N 05:02:50 89° W 05:04:00 61° S
ATLAS 3B R/B 2.4 05:01:26 52° SSW 05:03:07 78° ESE 05:09:49 10° NE
Cosmos 2123 Rocket 4.1 05:01:43 46° SSW 05:03:39 71° W 05:09:58 10° N
Lacrosse 5 rocket 2.9 05:12:54 26° NNE 05:12:54 26° NNE 05:14:37 10° NE
Cosmos 2237 Rocket 3.9 05:14:11 19° E 05:14:11 19° E 05:16:52 10° NE
Centaur D AC-29 3.5 04:55:17 10° W 05:13:14 33° SSW 05:13:26 33° SSW
ALOS 2 4.1 05:16:11 26° ENE 05:16:11 26° ENE 05:19:27 10° NNE
Cosmos 1461 3.6 05:14:18 10° NNW 05:17:29 50° NNW 05:17:29 50° NNW
Cosmos 1447 Rocket 4.4 05:18:57 65° SE 05:19:37 71° E 05:25:48 10° NNE
Cosmos 1300 3.9 05:16:01 10° N 05:18:38 42° NNW 05:18:38 42° NNW
USA 215 4.3 05:14:15 10° NE 05:20:24 45° NW 05:26:32 10° WSW
Cosmos 2360 Rocket 3.7 05:18:00 15° WSW 05:21:57 33° WNW 05:27:00 10° N
Cosmos 2233 Rocket 3.8 05:16:23 10° N 05:22:32 81° E 05:23:14 70° SSE
Spot 4 4.0 05:26:51 63° NE 05:26:51 63° NE 05:31:13 10° N
COSMOS 2428 2.5 05:26:21 82° SSE 05:26:33 84° ESE 05:32:19 10° NNE
COBE Rocket 4.4 05:32:36 54° ENE 05:32:36 54° ENE 05:37:20 10° N
Meteor 2-5 Rocket 4.1 05:31:52 50° WSW 05:32:39 55° WNW 05:38:06 10° N
Cosmos 2322 4.1 05:31:35 48° WSW 05:32:47 58° WNW 05:38:22 10° NNE
Cosmos 968 Rocket 3.9 05:28:56 10° N 05:33:47 52° ENE 05:33:47 52° ENE
Meteor 2-10 Rocket 3.6 05:30:00 10° N 05:34:42 66° NE 05:34:42 66° NE
ATLAS CENTAUR R/B 2.4 05:37:47 10° NNW 05:41:27 46° NNE 05:41:27 46° NNE
Cosmos 2278 Rocket 3.3 05:43:07 10° N 05:48:12 33° ENE 05:49:14 31° E
USA 267 3.4 05:49:09 44° ESE 05:51:17 67° NE 05:57:46 10° NW
NOSS 0 Rocket 3.8 05:54:58 71° ESE 05:54:58 71° ESE 06:01:07 10° NNE
Cosmos 1464 Rocket 4.2 05:56:04 10° N 06:02:20 60° E 06:02:53 58° ESE
SL-8 R/B 4.3 05:58:40 10° NW 06:02:59 54° N 06:02:59 54° N
Cosmos 1844 Rocket 4.1 06:02:08 10° NW 06:06:23 26° W 06:06:23 26° W
Cosmos 1867 4.3 06:02:26 10° NNW 06:07:42 46° NE 06:08:17 44° ENE
BREEZE-M DEB (TANK) 3.7 05:59:21 10° WSW 06:09:11 53° NW 06:12:22 10° NE
ATLAS CENTAUR R/B 3.0 06:13:07 65° ESE 06:13:07 65° ESE 06:23:01 10° NE
Thor Agena Rocket 3.9 06:09:06 10° NNE 06:13:38 58° ENE 06:13:38 58° ENE
Cosmos 2333 Rocket 4.0 06:17:10 19° W 06:19:46 26° WNW 06:24:31 10° N
Nimbus 7 Rocket 4.3 06:13:46 10° NNE 06:19:49 82° WNW 06:20:09 78° WSW
Cosmos 1980 3.6 06:22:01 82° N 06:22:01 82° N 06:27:29 10° NNE
Cosmos 2346 Rocket 4.3 06:22:16 85° SSE 06:22:24 87° E 06:28:34 10° N
Cosmos 2034 Rocket 3.9 06:27:41 10° N 06:33:54 75° E 06:34:13 73° ESE
Cosmos 2058 Rocket 4.1 06:31:47 10° NNW 06:34:55 44° NNW 06:34:55 44° NNW
GP-B 4.1 06:36:11 10° N 06:39:26 43° NE 06:39:26 43° NE
NOSS 3-1 (C) 4.4 06:44:09 29° E 06:44:09 29° E 06:48:03 10° NE
Cosmos 1943 Rocket 4.4 06:41:11 10° N 06:44:57 18° NE 06:48:40 10° E
BREEZE-M DEB (TANK) 4.3 06:44:50 48° SE 06:45:09 48° ESE 07:01:35 10° NE
Cosmos 2219 Rocket 4.4 06:43:18 13° W 06:46:10 19° NW 06:50:05 10° N
SL-4 R/B 4.1 06:49:47 20° NE 06:49:47 20° NE 06:50:59 10° NE
SL-16 R/B 2.7 06:49:42 47° E 06:49:42 47° E 06:54:40 10° NE
Cosmos 1455 4.5 06:46:13 10° NNW 06:47:43 20° NW 06:47:43 20° NW
Tsikada Rocket 3.8 06:49:58 80° SSE 06:50:16 84° E 06:56:30 10° N
Cosmos 2237 Rocket 2.7 06:55:59 47° WNW 06:56:24 48° WNW 07:01:51 10° N
Cosmos 1354 Rocket 4.3 06:55:41 10° NNW 07:00:14 60° WNW 07:00:14 60° WNW
Cosmos 1777 Rocket 4.4 06:56:43 10° N 07:01:56 57° ENE 07:02:06 57° ENE
Meteor 1-11 4.1 07:05:46 84° E 07:05:46 84° E 07:11:20 10° N
CZ-2D R/B 3.5 07:10:35 10° NE 07:14:56 26° E 07:15:12 26° E
Resurs 1-4 Rocket 3.4 07:11:13 10° NE 07:15:47 28° E 07:16:07 28° ESE
SJ 16-02 2.5 07:15:03 10° N 07:19:06 37° ENE 07:19:06 37° ENE
Cosmos 2297 4.3 07:21:26 10° NNW 07:26:56 51° ENE 07:28:37 38° ESE
NOSS 2-3 (D) 4.4 07:32:09 42° ENE 07:32:09 42° ENE 07:35:24 10° NE
Cosmos 1953 Rocket 4.4 07:31:54 45° ENE 07:31:54 45° ENE 07:35:33 10° NNE
MOZ.5/SAFIR/RUBIN 5/SL-8 4.3 07:31:13 51° E 07:31:29 52° ENE 07:36:05 10° N
Cosmos 2278 Rocket 3.3 07:27:13 10° NW 07:31:03 30° W 07:31:03 30° W
X-37B 3.7 07:37:12 12° ENE 07:37:12 12° ENE 07:37:28 10° ENE
USA 267 4.4 07:36:28 27° W 07:36:28 27° W 07:40:13 10° WNW
Cosmos 1408 4.0 07:38:39 36° NNE 07:38:39 36° NNE 07:41:01 10° NNE
ADEOS II 3.9 07:35:04 10° NE 07:38:56 21° E 07:40:20 19° ESE
Cosmos 1892 3.7 07:40:30 45° NNE 07:40:30 45° NNE 07:43:16 10° N
CZ-4 R/B 3.9 07:36:43 10° N 07:41:01 68° NW 07:41:01 68° NW
Cosmos 1758 Rocket 4.5 07:48:24 41° NW 07:48:24 41° NW 07:52:01 10° N
NOSS 2-3 (C) 3.8 07:48:57 64° NNE 07:48:57 64° NNE 07:52:51 10° NNE
In-Cosmos 22 Rocket 4.1 07:57:39 65° SW 07:58:18 72° W 08:03:53 10° N
Cosmos 1634 Rocket 4.2 07:52:38 10° NNW 07:58:42 51° W 07:59:27 48° WSW
Cosmos 405 Rocket 3.3 08:03:48 52° NNE 08:03:48 52° NNE 08:06:42 10° N
Cosmos 2279 Rocket 3.9 07:57:54 10° N 08:04:08 75° W 08:05:28 56° SSW
Cosmos 2098 Rocket 4.2 08:04:50 38° SSE 08:07:00 57° E 08:12:19 10° NNE
Helios 1A 4.0 08:08:57 36° WNW 08:08:57 36° WNW 08:11:52 10° NNW
Cosmos 1943 3.6 08:07:21 44° SE 08:08:31 52° ESE 08:13:58 10° NNE
Cosmos 2058 3.1 08:08:42 63° E 08:08:42 63° E 08:12:37 10° NNE
Cosmos 1603 4.0 08:09:39 47° SSE 08:10:55 58° ESE 08:16:28 10° NNE
Cosmos 468 Rocket 3.8 08:10:36 70° SSW 08:11:13 89° WNW 08:16:26 10° NNE
Meteor 1-29 4.5 08:10:15 10° NNE 08:12:59 30° E 08:12:59 30° E
DELTA 2 R/B (1) 4.0 08:17:37 42° SSE 08:17:37 42° SSE 08:22:45 10° E
Cosmos 724 4.3 08:14:42 10° NW 08:20:48 68° WSW 08:22:29 47° S
USA 229 DEB 3.6 08:19:11 45° SW 08:21:14 73° NW 08:27:59 10° NNE
USA 229 3.6 08:19:16 46° SW 08:21:17 74° NW 08:28:02 10° NNE
Cosmos 1825 2.7 08:23:13 51° NW 08:23:13 51° NW 08:26:23 10° N
SL-16 R/B 2.4 08:22:46 39° S 08:25:19 83° WSW 08:31:32 10° NNW
Cosmos 921 Rocket 4.0 08:25:25 33° SE 08:26:13 36° E 08:30:06 10° NNE
SL-4 R/B 4.3 08:25:18 12° WNW 08:27:16 16° NNW 08:29:36 10° NNE
Cosmos 1943 Rocket 2.1 08:23:41 10° NNW 08:29:07 61° WSW 08:30:08 52° SSW
Helios 1B rocket 2.4 08:25:06 10° N 08:29:11 68° WNW 08:29:15 68° W
Cosmos 1633 3.6 08:30:30 35° ESE 08:30:49 36° E 08:34:04 10° NNE
ATLAS 5 CENTAUR R/B 4.3 08:24:11 31° SSW 08:30:50 43° SSE 09:25:23 10° ESE
NPP 3.7 08:27:44 10° N 08:33:06 69° WNW 08:34:33 48° SW
SL-16 R/B 3.8 08:31:34 19° W 08:33:34 23° NW 08:38:04 10° N
NOSS 3-1 (C) 4.3 08:31:31 26° W 08:33:41 35° NW 08:39:14 10° NNE
Cosmos 1763 Rocket 3.7 08:34:58 45° WSW 08:35:58 52° WNW 08:40:57 10° N
Nadezhda 4 Rocket 3.9 08:34:17 43° SSW 08:36:20 70° W 08:42:28 10° N
Exosat Rocket 4.4 08:33:41 36° SW 08:36:28 56° WNW 08:42:07 10° N
Meteor 2-8 Rocket 4.5 08:30:51 10° N 08:37:00 81° E 08:40:26 28° SSE
SeaSat 1 2.9 08:33:24 10° NE 08:38:12 51° ESE 08:39:49 36° SSE
Cosmos 2026 Rocket 4.5 08:35:44 25° SSE 08:39:18 57° E 08:45:27 10° NNE
NOSS 3-1 (A) 3.6 08:39:15 37° WSW 08:41:04 53° NW 08:47:00 10° NNE
Cosmos 1437 Rocket 2.5 08:38:25 10° NNW 08:42:20 77° W 08:42:28 75° SW
Cosmos 1076 Rocket 3.5 08:43:16 52° SSE 08:44:13 76° E 08:48:28 10° N
USA 308 4.4 08:45:37 23° SE 08:46:14 24° SE 08:49:39 10° ENE
MINOTAUR 4 R/B 3.8 08:48:39 76° S 08:48:55 87° W 08:52:28 10° NNW
OE (NEXTSAT) 4.3 08:49:39 73° NW 08:49:45 74° NNW 08:53:12 10° ENE
IRS-1D 3.5 08:45:10 10° NNE 08:50:21 77° ESE 08:52:30 35° S
Cosmos 1437 4.3 08:48:04 10° NNE 08:50:30 26° ENE 08:51:19 22° ESE
UNK 4.1 08:52:37 42° WSW 08:53:03 43° W 08:57:27 10° NNW
CZ-2D R/B 3.0 08:50:19 10° N 08:54:58 34° WNW 08:56:31 28° WSW
Cosmos 2221 2.6 08:51:02 10° NNW 08:55:15 58° W 08:56:01 49° SW
Resurs 1-4 Rocket 3.1 08:50:51 10° N 08:55:33 33° WNW 08:57:12 27° WSW
Cosmos 1606 2.6 08:53:07 10° N 08:56:59 85° E 08:58:04 45° SSE
SJ 16-02 3.4 08:54:35 10° WNW 08:56:02 15° WNW 08:56:02 15° WNW
Cosmos 2369 Rocket 2.1 08:51:56 10° NNW 08:57:39 72° WSW 09:01:32 21° S
Cosmos 2151 3.4 08:55:56 31° SSE 08:57:44 58° E 09:01:53 10° NNE
Cosmos 2263 4.2 08:52:22 10° NNW 08:58:05 83° ENE 09:03:42 10° SSE
CBERS-1 4.1 08:53:30 10° NNE 08:58:38 73° ESE 09:01:16 29° S
Cosmos 1627 Rocket 4.5 09:00:00 27° S 09:03:38 87° W 09:10:00 10° N
USA 281 3.5 09:00:07 10° SE 09:06:37 70° ENE 09:13:10 10° NNW
USA 305 3.6 09:06:01 32° S 09:07:17 41° SE 09:11:17 10° ENE
USA 290 2.8 09:07:20 39° SSE 09:08:06 49° ESE 09:11:14 10° NNE
Meteor 1-28 Rocket 3.1 09:06:33 32° SSE 09:08:15 87° ENE 09:12:03 10° N
X-37B 2.4 09:09:28 18° WNW 09:11:09 28° NNW 09:13:57 10° NE
Cosmos 1092 Rocket 4.0 09:08:02 29° SSW 09:11:11 62° W 09:17:17 10° N
Meteor 2-3 Rocket 4.1 09:07:15 17° S 09:11:29 60° E 09:16:58 10° NNE
CZ-4C R/B 3.6 09:11:55 15° SSE 09:14:39 56° ENE 09:18:03 10° N
Cosmos 1932 4.5 09:09:45 10° NNW 09:15:59 81° ENE 09:22:10 10° SSE
Cosmos 1898 Rocket 3.8 09:11:12 10° NNW 09:16:09 44° WSW 09:18:28 27° SSW
Cosmos 841 Rocket 3.9 09:16:22 29° SW 09:18:38 47° WNW 09:23:36 10° N
ADEOS II 2.6 09:13:48 10° N 09:18:47 44° WNW 09:21:16 26° SW
Meteor 2-15 Rocket 4.4 09:15:06 10° N 09:21:15 76° W 09:26:40 14° S
Cosmos 1656 Rocket 3.6 09:15:53 10° NNW 09:21:34 72° WSW 09:27:10 10° SSE
ADEOS Rocket 3.5 09:16:54 15° S 09:23:20 59° W 09:30:19 10° NNW
Cosmos 1937 Rocket 3.7 09:20:18 10° NNW 09:25:28 52° WSW 09:29:24 17° S
TIMED 4.5 09:23:40 30° SSW 09:25:48 74° WNW 09:30:10 10° NNE
Cosmos 1933 3.7 09:22:37 10° N 09:26:42 66° E 09:30:44 10° SSE
ATLAS 5 CENTAUR R/B 1.3 09:25:54 30° SSW 09:27:44 75° ESE 09:31:55 10° NE
IRIDIUM 104 4.4 09:23:29 10° N 09:28:43 77° E 09:33:55 10° S
USA 306 3.0 09:27:06 29° SSW 09:29:09 65° SE 09:33:21 10° NE
IRS-1C 4.2 09:24:10 10° NNE 09:29:32 80° ESE 09:33:47 16° S
Cosmos 1570 Rocket 4.2 09:27:19 25° SW 09:30:13 57° WNW 09:35:23 10° N
NOSS 2-2 (D) 2.9 09:30:34 33° SW 09:31:59 74° NW 09:35:30 10° NNE
Aureole 3 Rocket 3.7 09:31:55 10° NNW 09:35:22 35° W 09:37:34 22° SW
Cosmos 1814 Rocket 4.4 09:33:51 23° SW 09:36:53 49° WNW 09:41:55 10° N
IRIDIUM 114 4.3 09:32:38 10° N 09:37:52 86° W 09:43:05 10° S
Cosmos 2208 Rocket 4.2 09:34:35 22° SW 09:38:01 61° WNW 09:43:25 10° N
ASTEX 1 3.4 09:38:23 10° S 09:43:21 87° W 09:48:20 10° N
IDEFIX/ARIANE 42P 2.9 09:38:26 10° N 09:43:30 50° WNW 09:47:09 18° SW
Cosmos 1151 Rocket 3.7 09:41:58 10° N 09:46:09 54° E 09:50:18 10° SSE
IRIDIUM 103 4.3 09:41:49 10° N 09:47:01 70° W 09:52:11 10° S
Cosmos 1242 Rocket 4.0 09:44:48 10° NW 09:47:24 19° W 09:48:00 18° WSW
GPS 2-04 Rocket1 3.5 09:49:18 20° SSW 09:51:14 33° SSE 09:54:35 10° E
COSMOS 2441 4.4 09:48:52 10° N 09:53:40 65° WNW 09:57:50 13° SSW
ARIANE 5 R/B 2.4 09:50:08 10° N 09:55:07 74° WNW 09:59:49 12° SSW
Cosmos 1812 4.3 09:55:01 10° N 09:58:35 36° E 10:02:07 10° SSE
Cosmos 1271 Rocket 3.6 09:58:14 10° N 10:01:53 49° E 10:05:30 10° SSE
DELTA 2 R/B (1) 3.6 09:58:21 11° WSW 10:03:47 87° NNW 10:09:22 10° ENE
Cosmos 1862 3.9 10:02:05 10° S 10:06:01 59° E 10:09:59 10° NNE
Cosmos 2292 Rocket 4.1 10:04:57 15° SW 10:06:54 25° W 10:09:30 10° NNW
CZ-3B R/B 4.5 10:07:07 10° NNW 10:09:08 15° NNE 10:10:37 10° ENE
SL-16 R/B 4.4 10:08:48 10° W 10:09:41 10° W 10:10:34 10° W
USA 307 3.2 10:06:47 14° WSW 10:10:24 59° NW 10:14:36 10° NE
Cosmos 1553 Rocket 4.2 10:05:13 10° NNW 10:11:20 54° W 10:17:20 10° SSW
S3M 4.0 10:07:57 10° N 10:14:05 78° W 10:20:16 10° S
SeaSat 1 4.1 10:11:42 10° N 10:15:21 21° NW 10:19:00 10° W
CZ-4C R/B 3.0 10:13:09 10° S 10:17:26 39° ESE 10:22:22 10° NE
Spot 4 Rocket 4.1 10:16:27 10° N 10:21:34 70° WNW 10:26:40 10° SSW
Alouette 2 Rocket 3.3 10:18:36 10° NNW 10:22:06 55° W 10:26:04 10° S
Meteor 2-16 Rocket 4.5 10:16:55 10° SSW 10:23:02 71° W 10:29:10 10° N
USA 308 3.6 10:21:55 10° WSW 10:25:58 44° NW 10:30:04 10° NE
CZ-4B R/B 4.3 10:21:28 10° N 10:26:20 39° WNW 10:31:10 10° SW
ERBS 3.4 10:23:24 10° SSW 10:26:23 36° SE 10:29:23 10° ENE
CZ-2C R/B 2.4 10:22:44 10° N 10:27:45 75° WNW 10:32:34 10° SSW
ALOS 2.7 10:25:53 10° NNE 10:30:32 68° E 10:35:10 10° S
Cosmos 1500 Rocket 4.1 10:27:24 10° S 10:31:41 61° E 10:35:58 10° NNE
Lacrosse 4 Rocket 1.3 10:28:11 10° NNW 10:32:13 64° WSW 10:36:12 10° SSE
Cosmos 1743 Rocket 4.1 10:29:32 10° S 10:33:50 63° E 10:38:10 10° NNE
